MST,Max TemperatureF,Mean TemperatureF,Min TemperatureF,Max Dew PointF,MeanDew PointF,Min DewpointF,Max Humidity, Mean Humidity, Min Humidity, Max Sea Level PressureIn, Mean Sea Level PressureIn, Min Sea Level PressureIn, Max VisibilityMiles, Mean VisibilityMiles, Min VisibilityMiles, Max Wind SpeedMPH, Mean Wind SpeedMPH, Max Gust SpeedMPH,PrecipitationIn, CloudCover, Events, WindDirDegrees
2014-1-1,32,19,5,30,20,3,100,89,78,30.43,30.17,29.96,10,4,0,16,7,31,0.07,7,Fog-Snow,338
2014-1-2,35,18,0,20,8,-3,92,72,52,30.48,30.29,30.04,10,8,0,17,3,21,0.12,1,Fog,163
2014-1-3,46,34,22,29,23,16,92,65,38,30.00,29.73,29.43,10,6,0,45,18,56,T,4,Fog-Snow,321
2014-1-4,22,14,5,18,10,1,88,78,67,30.31,30.07,29.86,10,7,1,23,7,26,T,7,Snow,344
2014-1-5,7,-2,-11,1,-7,-18,86,72,57,30.74,30.39,30.10,10,5,2,31,14,37,T,6,Snow,327
2014-1-6,31,12,-7,16,4,-14,68,58,48,30.57,30.35,29.99,10,10,10,24,12,30,0.00,2,,317
2014-1-7,34,28,21,23,18,12,88,69,49,30.11,30.06,29.99,10,9,4,21,4,23,T,5,Snow,29
2014-1-8,25,19,13,22,18,10,100,89,77,30.16,30.05,29.94,10,4,0,8,1,10,0.00,5,Fog,185
2014-1-9,40,32,23,25,21,17,81,65,48,29.96,29.78,29.66,10,10,10,33,14,43,0.00,1,,266
2014-1-10,35,29,22,23,17,10,78,63,47,29.91,29.75,29.66,10,10,10,31,14,38,T,3,Snow,307
2014-1-11,48,30,12,30,22,10,80,63,45,30.01,29.78,29.45,10,10,10,40,16,53,0.00,0,,274
2014-1-12,45,35,25,29,21,14,82,63,44,29.92,29.68,29.46,10,10,10,43,20,52,0.00,2,,290
2014-1-13,45,34,23,28,21,13,82,61,40,30.10,29.91,29.81,10,9,2,38,22,47,T,5,Snow,299
2014-1-14,31,27,23,25,20,16,85,74,63,30.48,30.32,30.05,10,8,2,30,14,38,T,7,Snow,318
2014-1-15,44,32,19,24,21,16,81,62,43,30.32,30.13,30.04,10,10,10,28,14,36,0.00,0,,310
2014-1-16,37,31,24,21,18,14,75,58,40,30.38,30.30,30.17,10,10,10,35,18,45,0.00,2,,311
2014-1-17,49,37,24,22,18,15,74,52,29,30.25,30.15,30.04,10,10,10,23,13,30,0.00,1,,312
2014-1-18,47,37,27,20,18,16,63,49,34,30.30,30.18,30.04,10,10,10,24,13,35,0.00,0,,307
2014-1-19,54,43,32,20,18,15,52,37,22,30.07,29.97,29.86,10,10,10,29,11,37,0.00,0,,310
2014-1-20,39,30,20,21,19,16,84,62,40,30.45,30.33,30.02,10,10,10,29,12,36,0.00,2,,315
2014-1-21,51,35,18,19,14,7,84,50,16,30.30,30.21,30.15,10,10,10,29,12,35,0.00,1,,320
2014-1-22,32,22,12,27,21,9,84,75,66,30.49,30.22,30.13,10,6,1,16,7,20,0.02,7,Snow,358
2014-1-23,30,20,10,16,11,5,88,69,50,30.66,30.52,30.32,10,10,8,17,5,21,0.01,3,Snow,301
2014-1-24,50,38,26,23,18,13,60,46,31,30.36,30.23,30.13,10,10,10,37,18,45,0.00,3,,310
2014-1-25,54,43,31,24,22,20,63,46,28,30.19,30.04,29.91,10,10,10,31,13,37,0.00,0,,313
2014-1-26,41,27,13,30,18,3,81,65,48,30.31,30.02,29.83,10,7,1,35,15,45,T,6,Snow,336
2014-1-27,19,13,6,4,1,-3,73,58,43,30.42,30.31,30.09,10,10,5,14,6,17,T,6,Snow,354
2014-1-28,32,16,0,6,-1,-10,87,52,17,30.44,30.28,30.07,10,10,10,28,10,33,0.00,0,,308
2014-1-29,48,30,12,35,21,5,67,50,33,30.05,29.70,29.37,10,10,3,40,15,55,0.08,2,Rain,276
2014-1-30,33,23,13,31,20,10,92,83,73,29.96,29.73,29.49,10,7,1,16,9,22,0.01,8,Snow,33
2014-1-31,28,14,-1,20,11,-6,92,83,74,30.00,29.90,29.66,10,9,6,16,5,21,0.07,5,Snow,12